Powrót do katalogu

STARLINK-37930

AktywnyŁącznośćSSO
NORAD 69668·PAYLOAD·🇺🇸 United States

Wystrzelony Jun 21, 2026 z Vandenberg Space Force Base

Loading…

Następne Przeloty (najbliższe 24 godziny)

TLE

ŚwieżeSource: CelesTrak SupGP

Epoka: Sep 15, 2026, 04:36 UTC

1 69668C 26143V   26258.19215278 -.00042565  00000+0 -13213-2 0  2582
2 69668  97.2836 301.4582 0000800  92.3633 106.0648 15.33462540    18

Śledź STARLINK-37930 w czasie rzeczywistym z AllMySat

Download on the App Store